Home   Weather   Township of Fairfield   Past weeks
Flag for USA

Past Weather in Township of Fairfield, Indiana, USA — Yesterday and Last 2 Weeks

Now
66 °F

Passing clouds.


Feels Like: 66 °F
Forecast: 77 / 63 °F
Wind: 15 mph from Southwest

Location: Fort Wayne International Airport
Current Time: Sep 26, 2020 at 11:38:07 pm
Latest Report: Sep 26, 2020 at 10:54 pm
Visibility: 10 mi
Pressure29.83 "Hg
Humidity: 78%
Dew Point: 59 °F
Location of Township of FairfieldLocation

Past Weather in Township of Fairfield — Graph

°F

Township of Fairfield Temperature Yesterday

Maximum temperature yesterday: 79 °F (at 2:54 pm)
Minimum temperature yesterday: 48 °F (at 6:54 am)
Average temperature yesterday: 63 °F

High & Low Weather Summary for the Past Weeks

 TemperatureHumidityPressure
High80 °F (Sep 12, 4:54 pm)100% (Sep 15, 5:54 am)30.49 "Hg (Sep 15, 5:54 am)
Low38 °F (Sep 19, 6:54 am)29% (Sep 20, 4:54 pm)29.83 "Hg (Sep 26, 8:54 pm)
Average60 °F74%30.15 "Hg
* Reported Sep 11 9:18 pm — Sep 26 9:54 pm, Township of Fairfield. Weather by CustomWeather, © 2020

Note: Actual official high and low records may vary slightly from our data, if they occured in-between our weather recording intervals... More about our weather records

Township of Fairfield Weather History for the Previous 24 Hours

Scroll right to see more
 ConditionsComfort  
Time TempWeatherWind HumidityBarometerVisibility
9:54 pm
Sat, Sep 26
65 °FPassing clouds.10 mph81%29.83 "Hg10 mi
8:54 pm67 °FPassing clouds.10 mph76%29.83 "Hg10 mi
7:54 pm70 °FPassing clouds.10 mph68%29.83 "Hg10 mi
6:54 pm73 °FPartly sunny.9 mph62%29.83 "Hg10 mi
5:54 pm75 °FScattered clouds.15 mph58%29.84 "Hg10 mi
4:54 pm76 °FPassing clouds.15 mph56%29.83 "Hg10 mi
3:54 pm76 °FPassing clouds.15 mph60%29.86 "Hg10 mi
2:54 pm75 °FPartly sunny.15 mph64%29.88 "Hg10 mi
1:54 pm73 °FPartly sunny.18 mph66%29.90 "Hg10 mi
1:29 pm71 °FBroken clouds.17 mph71%29.92 "Hg10 mi
12:54 pm68 °FOvercast.17 mph78%29.93 "Hg10 mi
11:54 am68 °FPartly sunny.20 mph78%29.94 "Hg10 mi
11:38 am68 °FPartly sunny.18 mph78%29.95 "Hg10 mi
11:19 am67 °FScattered clouds.15 mph79%29.95 "Hg10 mi
10:54 am67 °FPartly sunny.16 mph81%29.95 "Hg10 mi
10:13 am66 °FBroken clouds.13 mph84%29.96 "Hg10 mi
9:21 am62 °FPassing clouds.8 mph93%29.97 "Hg10 mi
8:54 am60 °FPassing clouds.5 mph96%29.97 "Hg9 mi
7:54 am54 °FScattered clouds.6 mph97%29.97 "Hg9 mi
6:54 am54 °FPassing clouds.5 mph97%29.95 "Hg10 mi
5:54 am54 °FPassing clouds.5 mph97%29.95 "Hg10 mi
4:54 am55 °FPassing clouds.6 mph93%29.94 "Hg10 mi
3:54 am55 °FPassing clouds.7 mph93%29.93 "Hg10 mi
2:54 am54 °FPassing clouds.3 mph93%29.93 "Hg10 mi
1:54 am55 °FClear.3 mph90%29.93 "Hg10 mi
12:54 am58 °FClear.3 mph87%29.94 "Hg10 mi
11:54 pm
Fri, Sep 25
56 °FClear.3 mph87%29.96 "Hg10 mi
Weather by CustomWeather, © 2020

See weather overview